| time (UTC) | temp F | wind direction | speed MPH | gust MPH | rain 1hr in | rain 24hr in | rain mn in | humidity % | barometer mb |
| 20260901121544 | 57 | 254 | 0.0 | 2.0 | 0.00 | 0.00 | 0.00 | 64 | 1014.1 |
| 20260901120053 | 57 | 254 | 2.0 | 3.0 | 0.00 | 0.00 | 0.00 | 64 | 1014.0 |
| 20260901114542 | 57 | 245 | 1.0 | 3.0 | 0.00 | 0.00 | 0.00 | 63 | 1014.1 |
| 20260901113047 | 57 | 245 | 2.0 | 3.0 | 0.00 | 0.00 | 0.00 | 64 | 1014.2 |
| 20260901111548 | 56 | 245 | 2.0 | 4.0 | 0.00 | 0.00 | 0.00 | 64 | 1014.2 |
| 20260901110046 | 56 | 250 | 1.0 | 3.0 | 0.00 | 0.00 | 0.00 | 64 | 1014.2 |
| 20260901104538 | 55 | 250 | 1.0 | 2.0 | 0.00 | 0.00 | 0.00 | 64 | 1014.2 |
| 20260901103038 | 56 | 250 | 1.0 | 3.0 | 0.00 | 0.00 | 0.00 | 63 | 1014.2 |
| 20260901101537 | 56 | 250 | 4.0 | 5.0 | 0.00 | 0.00 | 0.00 | 63 | 1014.1 |
| 20260901100036 | 56 | 250 | 1.0 | 3.0 | 0.00 | 0.00 | 0.00 | 63 | 1014.0 |
| 20260901094534 | 56 | 250 | 1.0 | 3.0 | 0.00 | 0.00 | 0.00 | 63 | 1014.1 |
| 20260901093032 | 56 | 250 | 2.0 | 3.0 | 0.00 | 0.00 | 0.00 | 63 | 1014.1 |
| 20260901091530 | 57 | 250 | 2.0 | 3.0 | 0.00 | 0.00 | 0.00 | 61 | 1014.2 |
| 20260901090029 | 57 | 250 | 1.0 | 4.0 | 0.00 | 0.00 | 0.00 | 62 | 1014.1 |
| 20260901084528 | 56 | 250 | 4.0 | 6.0 | 0.00 | 0.00 | 0.00 | 63 | 1014.4 |
| 20260901083027 | 57 | 250 | 4.0 | 6.0 | 0.00 | 0.00 | 0.00 | 62 | 1014.4 |
| 20260901081524 | 57 | 250 | 5.0 | 6.0 | 0.00 | 0.00 | 0.00 | 62 | 1014.5 |
| 20260901080023 | 57 | 250 | 5.0 | 9.0 | 0.00 | 0.00 | 0.00 | 63 | 1014.4 |
| 20260901074519 | 57 | 254 | 3.0 | 5.0 | 0.00 | 0.00 | 0.00 | 63 | 1014.3 |
| 20260901073018 | 57 | 250 | 2.0 | 3.0 | 0.00 | 0.00 | 0.00 | 63 | 1014.2 |
| 20260901071522 | 58 | 250 | 4.0 | 5.0 | 0.00 | 0.00 | 0.00 | 60 | 1014.5 |
| 20260901070022 | 58 | 263 | 2.0 | 4.0 | 0.00 | 0.00 | 0.00 | 61 | 1014.2 |
| 20260901064515 | 58 | 263 | 3.0 | 5.0 | 0.00 | 0.00 | 0.00 | 60 | 1014.4 |
| 20260901063010 | 59 | 271 | 2.0 | 4.0 | 0.00 | 0.00 | 0.00 | 60 | 1014.1 |
| 20260901061508 | 58 | 271 | 1.0 | 4.0 | 0.00 | 0.00 | 0.00 | 60 | 1014.1 |
| 20260901060005 | 57 | 271 | 2.0 | 3.0 | 0.00 | 0.00 | 0.00 | 60 | 1014.0 |
| 20260901054511 | 58 | 271 | 2.0 | 4.0 | 0.00 | 0.00 | 0.00 | 58 | 1013.7 |
| 20260901053004 | 60 | 271 | 0.0 | 3.0 | 0.00 | 0.00 | 0.00 | 56 | 1013.6 |
| 20260901051504 | 61 | 271 | 3.0 | 4.0 | 0.00 | 0.00 | 0.00 | 55 | 1013.7 |
| 20260901050004 | 61 | 301 | 0.0 | 0.0 | 0.00 | 0.00 | 0.00 | 53 | 1013.6 |
| 20260901044502 | 62 | 301 | 0.0 | 0.0 | 0.00 | 0.00 | 0.00 | 51 | 1013.5 |
| 20260901043002 | 66 | 300 | 2.0 | 4.0 | 0.00 | 0.00 | 0.00 | 47 | 1013.7 |
| 20260901041502 | 66 | 289 | 3.0 | 7.0 | 0.00 | 0.00 | 0.00 | 48 | 1013.8 |
| 20260901040001 | 66 | 287 | 8.0 | 10.0 | 0.00 | 0.00 | 0.00 | 47 | 1013.9 |
| 20260901034612 | 65 | 277 | 8.0 | 9.0 | 0.00 | 0.00 | 0.00 | 48 | 1014.0 |
| 20260901033101 | 66 | 278 | 5.0 | 9.0 | 0.00 | 0.00 | 0.00 | 47 | 1013.7 |
| 20260901031558 | 66 | 291 | 9.0 | 10.0 | 0.00 | 0.00 | 0.00 | 46 | 1013.5 |
| 20260901030057 | 68 | 277 | 8.0 | 10.0 | 0.00 | 0.00 | 0.00 | 45 | 1013.4 |
| 20260901024556 | 68 | 271 | 9.0 | 12.0 | 0.00 | 0.00 | 0.00 | 45 | 1013.4 |
| 20260901023105 | 68 | 275 | 10.0 | 12.0 | 0.00 | 0.00 | 0.00 | 45 | 1013.3 |
| 20260901021556 | 69 | 264 | 9.0 | 11.0 | 0.00 | 0.00 | 0.00 | 43 | 1013.1 |
| 20260901020052 | 70 | 263 | 8.0 | 11.0 | 0.00 | 0.00 | 0.00 | 41 | 1012.8 |
| 20260901014557 | 72 | 264 | 9.0 | 14.0 | 0.00 | 0.00 | 0.00 | 40 | 1012.5 |
| 20260901013049 | 73 | 270 | 13.0 | 19.0 | 0.00 | 0.00 | 0.00 | 38 | 1012.3 |
| 20260901011547 | 74 | 269 | 13.0 | 20.0 | 0.00 | 0.00 | 0.00 | 37 | 1012.1 |
| 20260901010047 | 75 | 268 | 15.0 | 20.0 | 0.00 | 0.00 | 0.00 | 36 | 1012.1 |
| 20260901004548 | 76 | 273 | 15.0 | 22.0 | 0.00 | 0.00 | 0.00 | 36 | 1012.0 |
| 20260901003044 | 76 | 258 | 21.0 | 26.0 | 0.00 | 0.00 | 0.00 | 35 | 1011.9 |
| 20260901001542 | 77 | 304 | 14.0 | 26.0 | 0.00 | 0.00 | 0.00 | 35 | 1011.9 |
| 20260901000045 | 76 | 283 | 22.0 | 28.0 | 0.00 | 0.00 | 0.00 | 35 | 1011.8 |
| 20260831234544 | 77 | 294 | 22.0 | 32.0 | 0.00 | 0.00 | 0.00 | 34 | 1011.8 |
| 20260831233038 | 77 | 267 | 22.0 | 31.0 | 0.00 | 0.00 | 0.00 | 34 | 1011.7 |
| 20260831231537 | 77 | 268 | 22.0 | 35.0 | 0.00 | 0.00 | 0.00 | 34 | 1011.8 |
| 20260831230035 | 77 | 268 | 23.0 | 29.0 | 0.00 | 0.00 | 0.00 | 34 | 1011.7 |
| 20260831224534 | 77 | 282 | 22.0 | 31.0 | 0.00 | 0.00 | 0.00 | 35 | 1011.6 |
| 20260831223034 | 77 | 285 | 23.0 | 39.0 | 0.00 | 0.00 | 0.00 | 36 | 1011.5 |
| 20260831221529 | 77 | 260 | 26.0 | 36.0 | 0.00 | 0.00 | 0.00 | 37 | 1011.5 |
| 20260831220029 | 77 | 291 | 25.0 | 35.0 | 0.00 | 0.00 | 0.00 | 36 | 1011.2 |
| 20260831214528 | 77 | 250 | 28.0 | 40.0 | 0.00 | 0.00 | 0.00 | 36 | 1011.5 |
| 20260831213025 | 77 | 269 | 24.0 | 37.0 | 0.00 | 0.00 | 0.00 | 36 | 1011.2 |
| 20260831211524 | 77 | 260 | 28.0 | 37.0 | 0.00 | 0.00 | 0.00 | 36 | 1011.4 |
| 20260831210024 | 76 | 262 | 28.0 | 37.0 | 0.00 | 0.00 | 0.00 | 36 | 1011.1 |
| 20260831204521 | 77 | 268 | 28.0 | 37.0 | 0.00 | 0.00 | 0.00 | 37 | 1011.1 |
| 20260831203018 | 76 | 245 | 27.0 | 37.0 | 0.00 | 0.00 | 0.00 | 38 | 1011.0 |
| 20260831201517 | 76 | 283 | 29.0 | 39.0 | 0.00 | 0.00 | 0.00 | 37 | 1011.0 |
| 20260831200028 | 76 | 274 | 23.0 | 40.0 | 0.00 | 0.00 | 0.00 | 40 | 1011.0 |
| 20260831194511 | 75 | 266 | 33.0 | 40.0 | 0.00 | 0.00 | 0.00 | 40 | 1011.0 |
| 20260831193007 | 75 | 259 | 28.0 | 41.0 | 0.00 | 0.00 | 0.00 | 40 | 1010.9 |
| 20260831191505 | 74 | 250 | 29.0 | 42.0 | 0.00 | 0.00 | 0.00 | 41 | 1010.7 |
| 20260831190003 | 74 | 263 | 30.0 | 40.0 | 0.00 | 0.00 | 0.00 | 41 | 1010.7 |
| 20260831184606 | 73 | 250 | 33.0 | 45.0 | 0.00 | 0.00 | 0.00 | 42 | 1010.9 |
| 20260831183057 | 73 | 281 | 28.0 | 41.0 | 0.00 | 0.00 | 0.00 | 42 | 1010.9 |
| 20260831181558 | 73 | 266 | 33.0 | 47.0 | 0.00 | 0.00 | 0.00 | 42 | 1010.8 |
| 20260831180052 | 73 | 256 | 31.0 | 43.0 | 0.00 | 0.00 | 0.00 | 43 | 1010.6 |
| 20260831174548 | 72 | 264 | 34.0 | 41.0 | 0.00 | 0.00 | 0.00 | 44 | 1010.5 |
| 20260831173046 | 72 | 257 | 35.0 | 43.0 | 0.00 | 0.00 | 0.00 | 45 | 1010.6 |
| 20260831171540 | 70 | 256 | 37.0 | 47.0 | 0.00 | 0.00 | 0.00 | 47 | 1010.4 |
| 20260831170037 | 70 | 254 | 38.0 | 45.0 | 0.00 | 0.00 | 0.00 | 47 | 1010.3 |
| 20260831164553 | 70 | 250 | 36.0 | 48.0 | 0.00 | 0.00 | 0.00 | 48 | 1010.2 |
| 20260831163033 | 69 | 260 | 35.0 | 48.0 | 0.00 | 0.00 | 0.00 | 49 | 1010.0 |
| 20260831161528 | 68 | 245 | 34.0 | 48.0 | 0.00 | 0.00 | 0.00 | 50 | 1010.0 |
| 20260831160026 | 68 | 230 | 40.0 | 51.0 | 0.00 | 0.00 | 0.00 | 49 | 1009.8 |
| 20260831154524 | 67 | 250 | 40.0 | 49.0 | 0.00 | 0.00 | 0.00 | 48 | 1009.9 |
| 20260831153022 | 67 | 235 | 36.0 | 46.0 | 0.00 | 0.00 | 0.00 | 47 | 1009.8 |
| 20260831151518 | 64 | 214 | 32.0 | 39.0 | 0.00 | 0.00 | 0.00 | 49 | 1009.8 |
| 20260831150016 | 63 | 228 | 28.0 | 38.0 | 0.00 | 0.00 | 0.00 | 50 | 1009.7 |
| 20260831144516 | 64 | 222 | 33.0 | 44.0 | 0.00 | 0.00 | 0.00 | 49 | 1009.4 |
| 20260831143018 | 62 | 225 | 37.0 | 45.0 | 0.00 | 0.00 | 0.00 | 51 | 1009.3 |
| 20260831141505 | 61 | 229 | 31.0 | 40.0 | 0.00 | 0.00 | 0.00 | 52 | 1009.2 |
| 20260831140003 | 60 | 223 | 27.0 | 36.0 | 0.00 | 0.00 | 0.00 | 54 | 1009.2 |
| 20260831134559 | 59 | 229 | 28.0 | 37.0 | 0.00 | 0.00 | 0.00 | 56 | 1009.1 |
| 20260831133054 | 57 | 218 | 25.0 | 31.0 | 0.00 | 0.00 | 0.00 | 58 | 1009.3 |
| 20260831131554 | 56 | 226 | 23.0 | 30.0 | 0.00 | 0.00 | 0.00 | 60 | 1009.1 |
| 20260831130049 | 56 | 214 | 22.0 | 29.0 | 0.00 | 0.00 | 0.00 | 61 | 1009.0 |
| 20260831124546 | 55 | 226 | 21.0 | 25.0 | 0.00 | 0.00 | 0.00 | 62 | 1009.0 |
| 20260831123042 | 56 | 233 | 21.0 | 28.0 | 0.00 | 0.00 | 0.00 | 61 | 1009.1 |